OK4ZAW-16 Weather Reports


time (UTC)temp
C
wind
direction
speed
KPH
gust
KPH
rain 1hr
cm
rain 24hr
cm
rain mn
cm
humidity
%
barometer
mb
20260504174535 13 0 1.6 3.2 0.00 0.00 0.00 10 1015.8
20260504173838 14 0 1.6 3.2 0.00 0.00 0.00 10 1015.8
20260504173141 14 0 1.6 3.2 0.00 0.00 0.00 10 1015.8
20260504172444 14 0 3.2 3.2 0.00 0.00 0.00 10 1015.8
20260504171050 15 0 3.2 4.8 0.00 0.00 0.00 10 1015.8
20260504170353 15 0 3.2 4.8 0.00 0.00 0.00 10 1015.8
20260504160119 16 0 3.2 6.4 0.00 0.00 0.00 97 1015.9
20260504150539 18 0 3.2 6.4 0.00 0.00 0.00 74 1016.1
20260504140955 20 0 3.2 6.4 0.00 0.00 0.00 62 1016.3
20260504140258 20 0 4.8 8.0 0.00 0.00 0.00 62 1016.4
20260504130716 18 0 3.2 6.4 0.00 0.00 0.00 74 1016.6
20260504110202 16 0 3.2 4.8 0.00 0.00 0.00 98 1017.0
20260504080811 13 0 4.8 6.4 0.00 0.00 0.00 10 1017.1
20260504050735 9 0 6.4 11.3 0.00 0.00 0.00 10 1016.6
20260504045343 9 0 6.4 11.3 0.00 0.00 0.00 10 1016.5
20260504044646 9 0 6.4 11.3 0.00 0.00 0.00 10 1016.4
20260504043950 9 0 6.4 16.1 0.00 0.00 0.00 10 1016.5
20260504043254 8 0 6.4 11.3 0.00 0.00 0.00 10 1016.6
20260504042558 8 0 8.0 12.9 0.00 0.00 0.00 10 1016.6
20260504041901 8 0 8.0 12.9 0.00 0.00 0.00 10 1016.7
20260504041205 8 0 6.4 9.7 0.00 0.00 0.00 10 1016.6
20260504035813 8 0 6.4 11.3 0.00 0.00 0.00 10 1016.7
20260504035116 8 0 6.4 11.3 0.00 0.00 0.00 10 1016.7
20260504034420 8 0 6.4 9.7 0.00 0.00 0.00 10 1016.7
20260504033724 8 0 6.4 12.9 0.00 0.00 0.00 10 1016.7
20260504033028 8 0 8.0 14.5 0.00 0.00 0.00 10 1016.7
20260504032332 8 0 6.4 11.3 0.00 0.00 0.00 10 1016.7
20260504031635 8 0 6.4 9.7 0.00 0.00 0.00 10 1016.8
20260504030939 8 0 6.4 12.9 0.00 0.00 0.00 10 1016.8
20260504030243 8 0 6.4 11.3 0.00 0.00 0.00 10 1016.8
20260504025547 8 0 6.4 11.3 0.00 0.00 0.00 10 1016.8
20260504024851 8 0 6.4 11.3 0.00 0.00 0.00 10 1016.8
20260504023458 8 0 6.4 9.7 0.00 0.00 0.00 10 1017.0
20260504022802 8 0 8.0 12.9 0.00 0.00 0.00 10 1016.9
20260504022106 8 0 8.0 12.9 0.00 0.00 0.00 10 1016.9
20260504021409 8 0 6.4 9.7 0.00 0.00 0.00 10 1016.5
20260504020713 8 0 6.4 9.7 0.00 0.00 0.00 10 1016.9
20260504020017 8 0 6.4 11.3 0.00 0.00 0.00 10 1016.9
20260504015321 8 0 6.4 9.7 0.00 0.00 0.00 10 1017.0
20260504014624 8 0 6.4 9.7 0.00 0.00 0.00 10 1017.0
20260504013928 8 0 6.4 11.3 0.00 0.00 0.00 10 1017.1
20260504013232 8 0 6.4 11.3 0.00 0.00 0.00 10 1017.0
20260504012536 9 0 8.0 11.3 0.00 0.00 0.00 10 1016.9
20260504011839 9 0 6.4 11.3 0.00 0.00 0.00 10 1016.9
20260504011143 9 0 8.0 11.3 0.00 0.00 0.00 10 1016.9
20260504010447 9 0 6.4 11.3 0.00 0.00 0.00 99 1017.0
20260504005750 9 0 8.0 14.5 0.00 0.00 0.00 97 1016.7
20260504005054 9 0 8.0 12.9 0.00 0.00 0.00 96 1016.9
20260504003701 9 0 8.0 0.0 0.00 0.00 0.00 95 1017.0
20260504003005 9 0 8.0 12.9 0.00 0.00 0.00 94 1016.9
20260504002309 9 0 8.0 12.9 0.00 0.00 0.00 94 1016.9
20260504001612 9 0 8.0 11.3 0.00 0.00 0.00 95 1017.1
20260504000916 9 0 8.0 11.3 0.00 0.00 0.00 95 1017.1
20260504000220 9 0 8.0 12.9 0.00 0.00 0.00 95 1017.0
20260503235523 9 0 6.4 11.3 0.00 0.00 0.00 95 1017.1
20260503233435 9 0 8.0 11.3 0.00 0.00 0.00 92 1017.2
20260503232738 9 0 8.0 12.9 0.00 0.00 0.00 92 1017.1
20260503232042 9 0 6.4 11.3 0.00 0.00 0.00 91 1017.2
20260503230649 9 0 6.4 9.7 0.00 0.00 0.00 91 1017.2
20260503225953 9 0 8.0 11.3 0.00 0.00 0.00 91 1017.2
20260503225256 9 0 8.0 11.3 0.00 0.00 0.00 91 1017.3
20260503224600 10 0 8.0 11.3 0.00 0.00 0.00 91 1017.2
20260503223904 10 0 8.0 16.1 0.00 0.00 0.00 91 1017.5
20260503223207 10 0 6.4 11.3 0.00 0.00 0.00 91 1017.3
20260503222511 10 0 8.0 17.7 0.00 0.00 0.00 90 1017.2
20260503221814 10 0 8.0 11.3 0.00 0.00 0.00 91 1017.3
20260503221118 10 0 8.0 12.9 0.00 0.00 0.00 91 1017.3
20260503220422 10 0 8.0 0.0 0.00 0.00 0.00 92 1017.3
20260503215725 10 0 6.4 11.3 0.00 0.00 0.00 93 1017.4
20260503215029 10 0 8.0 11.3 0.00 0.00 0.00 93 1017.7
20260503214332 10 0 6.4 12.9 0.00 0.00 0.00 94 1017.4
20260503213636 10 0 8.0 11.3 0.00 0.00 0.00 98 1017.6
20260503212939 10 0 8.0 9.7 0.00 0.00 0.00 10 1017.6
20260503212243 10 0 6.4 11.3 0.00 0.00 0.00 10 1017.7
20260503211547 10 0 6.4 12.9 0.00 0.00 0.00 10 1017.8
20260503210850 10 0 6.4 12.9 0.00 0.00 0.00 10 1017.7
20260503210154 10 0 6.4 9.7 0.00 0.00 0.00 10 1017.7
20260503205457 10 0 6.4 14.5 0.00 0.00 0.00 10 1017.8
20260503204801 10 0 6.4 11.3 0.00 0.00 0.00 10 1017.8
20260503204104 10 0 6.4 9.7 0.00 0.00 0.00 10 1017.8
20260503203408 10 0 6.4 9.7 0.00 0.00 0.00 10 1017.8
20260503202015 10 0 6.4 9.7 0.00 0.00 0.00 10 1017.8
20260503200622 10 0 8.0 11.3 0.00 0.00 0.00 98 1017.8
20260503195925 10 0 8.0 9.7 0.00 0.00 0.00 98 1017.9
20260503195229 10 0 6.4 11.3 0.00 0.00 0.00 98 1018.0
20260503194532 11 0 6.4 14.5 0.00 0.00 0.00 96 1018.0
20260503193836 11 0 6.4 11.3 0.00 0.00 0.00 94 1018.0
20260503193139 11 0 6.4 9.7 0.00 0.00 0.00 92 1018.0
20260503192442 11 0 6.4 11.3 0.00 0.00 0.00 91 1017.7
20260503191746 11 0 6.4 11.3 0.00 0.00 0.00 90 1017.9
20260503191049 11 0 6.4 8.0 0.00 0.00 0.00 88 1017.9
20260503190352 11 0 6.4 8.0 0.00 0.00 0.00 86 1017.8
20260503185656 11 0 6.4 11.3 0.00 0.00 0.00 83 1017.7
20260503184959 11 0 6.4 9.7 0.00 0.00 0.00 82 1017.7
20260503184303 11 0 6.4 9.7 0.00 0.00 0.00 81 1017.9
20260503183606 11 0 4.8 9.7 0.00 0.00 0.00 80 1017.8
20260503182909 11 0 6.4 9.7 0.00 0.00 0.00 79 1017.7
20260503182213 11 0 4.8 9.7 0.00 0.00 0.00 77 1017.6
20260503181516 12 0 4.8 8.0 0.00 0.00 0.00 74 1017.6
20260503180819 12 0 4.8 9.7 0.00 0.00 0.00 71 1017.6
20260503180122 12 0 6.4 11.3 0.00 0.00 0.00 69 1017.5
20260503175426 12 0 4.8 8.0 0.00 0.00 0.00 68 1017.6
20260503174729 12 0 4.8 8.0 0.00 0.00 0.00 67 1017.7